User: anonymous   Login
Location: La Tine
(46.4708°N, 7.0525°E)
Time: 12:45:30
(UTC+00:00)
Language:

FENGYUN 1C DEB - Orbit

View from above orbital plane
View from above orbital plane
View from above satellite
View from above satellite

Ground track
Ground track

The orbit data is extracted from the following two-line orbital elements,

1 38138U 99025EQK 21262.99839314  .00000712  00000-0  37041-3 0  9995
2 38138  98.8675 331.4725 0052133 115.6683 244.9889 14.17121105562715
Epoch (UTC): 19 September 2021 23:57:41
Eccentricity: 0.0052133
inclination: 98.8675°
perigee height: 797 km
apogee height: 873 km
right ascension of ascending node: 331.4725°
argument of perigee: 115.6683°
revolutions per day: 14.17121105
mean anomaly at epoch: 244.9889°
orbit number at epoch: 56271

The dashed part of the orbit path shows where the satellite is in the earth's shadow,  

DLR